Satellite-Ground Cal/Val Site Overpasses Predictions

Prediction of Satellite NPP Overpassing Cal/Val Site: Antarctic Dome C

Ground Cal/Val Site Location: Latitude: -75.10, Longitude: 123.35; Satellite-Ground Site NADIR distance within 100 km.

Table of predicted overpasses for the next 14.0 days since TLE Epoch: 10/1/2022
Interval Starting Time Ending Time Minimum Distance Time Minimum Distance (km)
1 10/01/2022 07:45:08 10/01/2022 07:45:28 10/01/2022 07:45:18 72.72
2 10/02/2022 07:26:16 10/02/2022 07:26:43 10/02/2022 07:26:29 35.11
3 10/05/2022 14:49:42 10/05/2022 14:50:11 10/05/2022 14:49:56 11.48
4 10/07/2022 07:32:31 10/07/2022 07:33:00 10/07/2022 07:32:46 2.09
5 10/10/2022 14:55:59 10/10/2022 14:56:27 10/10/2022 14:56:13 25.02
6 10/11/2022 14:37:15 10/11/2022 14:37:32 10/11/2022 14:37:24 82.22
7 10/12/2022 07:38:49 10/12/2022 07:39:16 10/12/2022 07:39:03 37.47
